Theta_e
311 314 317 318 318 318 318 318 318 319 319 319 319 319 318 318 318 318 318 317 317 316 316 315 315 314 314 323 323 324 318 320 321 322 325 325 325 326 328 328 328 328 328 328 327 326 326
307 307 310 312 313 313 314 315 317 317 317 317 317 317 317 317 317 317 317 316 315 315 315 314 314 313 317 320 321 322 319 322 322 323 325 325 326 326 325 327 327 327 327 327 327 327 327
313 309 308 308 309 309 309 309 310 311 311 312 313 313 314 314 314 314 314 314 314 313 314 313 313 313 319 319 321 322 321 323 322 323 324 326 325 325 326 327 327 328 327 327 327 328 328
324 317 310 318 323 323 320 314 312 310 309 309 309 310 310 310 311 311 311 312 312 312 312 312 313 313 321 320 319 320 322 323 323 323 323 324 324 324 324 325 326 327 327 329 329 328 327
325 324 320 325 325 324 325 326 326 326 320 316 312 311 310 309 308 308 308 309 310 311 311 312 314 325 320 322 319 320 320 322 323 324 323 323 323 324 325 327 327 327 328 328 329 328 328
325 325 324 323 326 324 323 322 322 322 322 325 325 325 322 321 318 313 309 309 310 310 313 313 316 320 320 319 323 322 322 322 322 324 324 324 325 326 327 327 327 328 329 329 328 328 328
324 326 325 324 324 323 323 323 322 322 322 322 324 326 325 326 324 314 312 314 319 323 319 319 320 323 322 320 321 321 323 324 324 324 326 325 327 327 327 327 326 326 325 325 326 326 327
324 325 323 324 324 325 324 323 322 322 322 322 324 325 325 324 325 319 323 321 324 324 323 321 322 321 321 321 322 321 321 322 324 326 325 326 327 326 325 325 324 324 324 325 325 326 328
317 319 322 324 324 324 323 322 322 322 322 322 322 324 323 324 324 323 324 326 325 324 326 321 320 321 322 323 324 324 324 322 323 325 326 325 325 325 325 324 324 322 322 323 325 326 327
316 317 317 319 321 323 322 321 321 322 322 322 321 321 321 323 324 326 325 324 319 320 327 318 325 324 324 324 325 325 325 324 324 324 324 325 325 325 325 324 323 322 322 322 323 326 326
314 314 316 318 320 322 322 323 322 321 321 321 320 320 321 322 326 326 326 319 323 327 320 324 325 323 324 323 322 322 321 322 324 325 325 325 325 325 324 323 323 322 323 324 324 324 326
313 312 312 313 316 320 321 321 322 323 322 321 320 318 319 323 323 324 322 318 325 329 326 323 323 323 323 322 322 323 322 320 322 323 324 324 324 324 322 323 322 322 323 325 325 326 329
311 310 310 310 310 312 314 316 318 321 321 321 321 318 317 319 321 321 321 321 330 329 324 324 324 324 324 325 322 323 323 322 324 323 323 323 322 323 322 323 323 322 324 326 327 328 329
309 309 309 310 310 310 310 310 311 313 315 315 318 317 317 319 318 319 320 322 330 325 325 324 323 324 325 325 325 324 325 325 325 325 324 324 326 325 324 325 328 328 326 329 330 330 328
309 309 309 309 309 309 309 308 308 308 310 311 314 317 317 316 318 318 319 324 323 325 324 325 325 324 325 325 323 324 324 325 325 324 324 326 327 326 326 326 325 329 329 329 330 327 328
309 310 309 309 308 308 308 308 306 305 307 308 312 315 318 318 317 319 323 323 322 322 323 323 325 325 324 324 323 324 324 325 325 325 325 326 326 326 326 324 324 325 325 326 329 332 330
309 309 309 309 308 308 307 307 307 306 304 306 312 316 317 318 317 320 322 321 320 321 323 323 324 325 325 325 324 323 324 326 326 326 325 324 325 327 326 325 326 328 329 329 326 328 332
309 309 309 309 309 308 308 307 307 306 304 307 313 316 316 315 320 320 322 321 319 320 321 321 321 323 324 325 325 324 326 329 325 325 325 328 329 330 326 327 326 326 326 326 334 327 330
309 309 309 309 308 308 309 307 306 306 304 306 310 313 314 315 320 321 319 320 319 319 321 320 322 321 322 324 324 323 326 325 324 325 328 328 327 330 326 328 327 326 325 325 324 327 328
308 308 308 308 308 309 308 307 306 305 304 307 310 315 313 314 314 316 319 319 319 318 320 320 320 320 322 324 323 324 322 325 323 324 321 324 323 326 330 327 326 326 325 324 323 333 328
308 308 308 308 308 307 306 305 304 304 304 307 311 313 312 314 315 314 315 317 318 320 319 320 322 321 322 323 324 323 322 323 323 320 322 323 325 323 323 323 324 323 322 322 322 323 325
308 308 308 308 307 306 306 305 304 303 303 307 311 311 310 312 312 313 314 317 318 317 319 320 321 320 320 320 320 320 322 322 323 322 322 323 325 322 318 322 321 320 319 319 319 320 319
308 307 306 306 306 305 305 303 302 301 302 307 309 309 310 310 313 315 316 315 316 316 319 318 319 321 321 320 320 320 320 320 321 321 321 321 323 324 324 320 320 322 321 320 320 319 319
307 306 305 305 304 304 303 302 302 301 302 306 307 308 308 312 312 313 313 314 315 317 318 318 318 319 319 319 320 320 319 320 319 319 318 320 321 324 323 320 324 320 319 318 317 318 319
305 305 304 304 303 303 303 302 302 300 302 306 307 307 308 310 310 311 312 313 313 313 315 318 318 318 318 318 319 320 319 318 318 318 318 318 321 319 322 322 319 318 319 319 320 319 319
303 303 303 303 302 302 302 302 302 301 301 305 307 307 308 308 309 309 311 312 315 316 317 314 318 318 319 319 321 320 317 317 318 318 318 317 319 319 321 321 320 318 318 317 317 318 317
302 302 302 302 301 301 301 302 301 301 300 303 305 306 307 308 308 309 310 312 311 314 317 315 317 317 318 321 321 318 320 317 321 321 319 319 318 319 319 322 321 317 317 317 320 320 315
301 301 301 300 300 301 301 301 302 301 301 300 302 305 306 307 308 308 309 311 312 313 317 316 318 316 318 319 319 319 319 318 318 317 319 317 318 317 317 319 319 316 317 320 320 317 316
302 301 301 300 300 301 301 301 302 301 301 301 302 302 302 305 306 306 307 308 309 310 311 315 315 315 316 318 319 318 319 317 317 319 316 320 319 322 318 319 316 317 318 318 317 316 315
Wind_Speed
28 27 26 24 22 21 19 19 17 15 14 14 14 14 14 14 15 15 15 16 17 18 18 18 19 20 17 9 6 7 12 8 5 3 4 5 9 10 11 14 10 11 12 12 10 10 11
28 27 26 25 22 21 20 19 18 17 16 15 15 15 15 16 16 17 16 17 18 19 19 19 19 18 13 12 3 12 5 5 3 5 5 5 7 12 10 15 10 15 12 16 18 16 16
28 30 29 26 23 20 19 18 17 16 16 16 16 16 16 17 17 18 18 18 18 20 19 19 18 18 13 13 8 7 6 3 5 6 10 6 7 8 16 15 9 10 14 14 19 18 7
34 33 30 28 24 21 18 16 15 15 15 15 16 16 17 17 17 18 19 19 19 20 19 18 17 15 9 12 12 9 8 8 7 6 7 7 6 10 13 14 18 17 16 14 7 9 7
43 36 32 29 25 21 19 17 16 14 13 12 13 13 14 14 15 17 18 19 18 18 17 15 13 7 11 10 7 6 8 11 10 7 8 9 8 9 14 12 12 16 14 13 7 12 5
35 38 41 38 27 24 22 20 17 15 15 14 13 13 12 12 12 14 15 15 14 14 12 12 12 7 12 8 2 3 5 9 11 8 10 11 8 9 9 11 10 13 13 12 10 5 6
29 36 38 32 34 31 27 22 21 19 17 15 16 16 14 13 12 11 11 9 9 3 7 13 9 10 12 5 6 6 7 6 10 12 11 14 10 10 13 12 11 12 11 12 14 15 16
25 36 34 35 38 38 37 30 26 22 16 11 11 12 10 11 11 6 7 6 6 7 11 16 20 23 22 16 12 13 10 12 13 12 15 12 11 14 9 7 8 10 12 14 14 16 3
35 29 24 38 38 34 34 30 25 23 18 13 7 7 7 7 7 3 2 4 6 7 8 19 24 20 18 17 21 18 15 16 18 14 13 15 15 0 3 8 12 13 13 12 13 17 15
32 33 33 29 23 33 35 31 27 24 23 18 14 11 6 5 2 1 1 6 5 6 5 15 7 9 13 7 9 17 18 14 17 19 17 15 17 11 12 15 12 15 12 16 12 12 13
31 29 30 31 31 30 30 28 28 27 24 20 17 15 11 7 4 1 3 4 5 3 5 7 8 5 4 9 3 6 5 12 16 17 9 14 15 10 10 15 14 9 14 12 11 13 13
34 32 31 32 32 32 30 28 29 27 25 21 18 16 17 13 10 4 5 6 3 5 10 4 7 7 9 12 10 6 5 8 7 12 17 18 17 13 10 11 13 11 13 11 14 13 11
39 36 33 32 32 33 35 33 33 31 28 25 22 15 13 19 18 13 8 2 4 7 2 5 3 8 11 8 9 7 7 7 7 5 11 14 15 14 12 8 11 13 10 7 7 6 11
38 37 35 33 30 27 26 30 32 32 30 29 26 18 13 11 16 14 8 2 10 0 19 1 4 6 11 8 9 10 6 8 10 7 8 7 5 1 4 6 7 7 10 6 6 9 12
39 37 36 34 32 27 24 21 26 28 28 26 25 19 14 14 12 15 11 3 3 3 12 10 9 11 10 9 3 9 10 7 5 3 5 5 4 5 1 1 3 4 2 9 7 8 8
42 39 38 37 33 29 26 23 23 24 24 24 23 13 11 17 17 16 5 4 7 9 7 11 8 13 13 11 9 8 10 5 2 3 5 5 4 3 9 2 7 4 6 5 3 3 4
44 40 38 35 34 31 29 26 22 20 21 20 18 11 16 18 17 11 5 7 9 20 10 3 11 11 11 7 7 5 5 3 5 1 4 6 3 2 1 4 3 1 3 1 4 4 1
44 42 40 36 34 32 31 29 25 19 22 28 15 10 23 23 12 7 9 15 9 9 20 12 10 8 11 7 6 8 2 6 12 7 3 3 4 6 5 7 5 6 7 5 3 3 3
45 43 41 38 35 34 33 31 27 24 22 26 19 9 13 21 9 11 13 15 12 6 9 5 8 7 4 7 5 8 8 7 4 5 5 8 2 3 6 2 7 5 1 1 3 2 5
48 45 42 39 37 37 35 31 28 24 21 21 14 5 8 20 21 16 20 17 16 12 9 20 11 10 6 12 7 5 6 3 5 8 5 4 5 8 4 6 4 7 7 11 9 2 6
48 45 45 43 40 37 32 31 30 27 26 17 9 7 11 5 15 19 17 11 16 12 18 18 15 16 15 7 14 9 8 8 4 6 2 1 5 8 11 12 9 13 14 15 15 15 13
50 47 47 44 40 36 36 36 33 29 31 20 5 2 15 9 20 21 17 21 20 19 12 17 15 18 15 14 11 9 9 5 11 3 3 3 4 6 5 11 14 19 18 17 18 18 17
50 50 45 43 40 39 38 34 32 32 33 17 16 7 6 11 11 14 16 18 21 19 18 23 20 16 10 15 12 2 9 12 1 3 4 0 1 2 6 10 12 10 9 17 18 14 11
47 45 44 42 39 38 37 35 34 34 40 16 18 3 5 4 10 13 21 24 19 23 17 19 17 17 13 5 3 6 8 10 9 10 8 7 7 4 3 6 5 10 12 7 6 6 6
42 43 40 39 38 38 37 36 35 35 38 20 16 14 8 5 12 14 20 19 21 17 18 11 9 7 5 8 2 4 5 9 15 15 13 12 7 0 2 7 12 18 11 10 8 9 5
39 37 36 36 37 37 37 36 34 35 35 32 14 12 11 8 10 17 15 24 11 12 7 20 5 6 6 7 4 4 6 8 7 6 2 7 3 5 3 4 4 3 7 4 2 5 12
37 38 38 38 37 36 36 36 36 35 35 36 22 11 8 7 14 9 6 9 18 19 8 12 12 6 11 5 6 6 10 11 7 9 6 4 3 3 4 5 6 14 4 3 4 2 6
37 37 37 37 36 35 35 35 36 36 33 32 23 21 7 5 8 4 6 11 12 3 8 14 10 6 7 6 5 4 5 8 10 10 8 9 9 5 4 3 7 15 14 4 6 5 1
38 36 34 34 35 34 33 34 35 35 33 31 19 22 23 8 5 10 9 4 2 4 11 8 11 11 10 5 5 3 5 5 11 9 14 7 7 6 10 7 14 5 5 6 3 3 5
Wind_Direction
218 224 228 228 228 231 234 237 241 246 252 259 267 275 282 289 295 300 305 311 314 318 323 327 330 335 345 319 327 298 325 319 332 350 309 303 296 295 285 312 311 268 278 298 295 286 262
211 222 225 226 227 228 232 238 242 245 250 256 262 270 276 283 289 294 299 303 309 311 317 321 324 328 330 292 315 306 312 315 353 281 286 271 289 329 308 278 288 305 306 290 287 278 269
212 217 218 221 222 224 228 235 241 246 254 259 264 269 274 280 285 290 294 298 301 305 311 315 319 323 310 266 287 288 285 265 272 266 284 281 293 300 304 306 326 287 283 278 266 244 258
217 216 211 211 212 214 219 225 231 239 248 257 265 271 275 279 284 288 292 294 296 300 305 308 312 316 271 267 248 251 250 259 259 263 274 293 284 285 277 282 287 278 258 271 293 149 172
218 213 210 208 210 216 223 228 232 237 242 249 259 269 276 283 288 292 292 293 296 297 298 299 307 323 279 273 292 279 240 245 254 261 258 267 282 267 281 268 282 257 248 277 188 178 222
223 218 221 219 211 218 219 223 228 238 247 248 252 262 273 285 296 301 305 302 302 295 289 281 270 279 252 274 256 272 250 239 247 256 251 245 258 246 251 251 268 341 343 334 334 134 179
219 216 212 219 221 223 217 222 231 239 243 244 249 260 274 281 290 308 324 341 295 287 241 239 279 253 295 268 288 261 234 245 245 249 250 253 238 248 264 310 352 334 312 299 294 292 296
200 210 218 221 225 224 228 233 235 235 238 237 244 253 265 274 275 303 13 359 20 319 297 267 264 263 258 271 275 267 243 238 235 245 245 237 246 251 291 347 329 311 292 286 291 283 10
228 214 207 218 220 222 223 224 223 226 221 211 217 244 257 268 268 252 51 48 324 319 263 279 250 246 253 243 251 261 247 237 250 252 243 267 270 135 277 293 286 278 281 284 276 297 290
214 221 220 219 212 218 219 220 223 219 217 222 221 228 257 284 247 274 123 282 318 314 279 260 200 236 221 228 259 255 244 249 247 252 265 270 278 289 280 276 269 276 281 277 259 266 274
203 203 206 208 212 210 210 212 216 220 220 219 221 231 238 228 189 39 266 242 323 330 279 73 119 151 180 200 25 179 213 243 250 256 224 261 281 229 263 266 276 297 306 298 296 278 289
207 207 208 212 213 213 211 209 209 206 208 215 225 247 241 216 206 222 225 216 316 238 246 186 127 190 199 217 242 148 190 219 276 252 259 265 263 284 268 304 304 305 288 276 265 256 257
213 212 212 213 216 219 223 222 222 216 213 218 225 241 238 220 231 241 237 267 237 233 239 249 198 191 216 183 222 216 180 201 228 206 228 246 243 247 244 265 262 252 270 283 287 258 242
212 210 206 205 204 205 215 221 220 220 222 222 228 223 221 203 217 199 205 70 226 327 231 214 285 220 230 209 222 209 221 233 214 269 286 262 146 238 107 246 316 309 240 261 304 309 317
209 205 204 203 198 196 202 212 214 214 213 213 213 215 217 206 189 176 180 198 193 348 318 317 260 278 224 221 279 207 220 242 58 19 305 335 108 129 109 309 300 3 294 323 292 305 291
204 202 202 198 197 198 202 204 202 202 205 203 198 196 217 210 187 184 187 180 184 232 279 321 278 237 255 214 200 217 211 40 84 13 317 356 293 194 143 279 240 303 348 311 323 315 315
200 199 199 199 198 200 198 189 185 182 184 178 169 187 199 200 180 189 208 214 221 228 212 242 293 310 273 242 249 235 52 74 323 159 299 279 257 159 59 235 275 203 104 15 306 341 292
198 196 194 194 195 195 192 186 176 170 168 169 172 200 178 198 191 204 220 207 206 235 224 241 265 289 283 287 276 214 104 67 314 296 316 27 337 303 298 18 343 316 318 331 85 298 330
195 195 195 194 195 197 191 185 180 172 175 167 186 163 180 180 214 220 224 236 218 221 218 227 223 230 267 290 250 272 135 153 218 45 24 5 279 332 283 209 15 319 359 109 232 93 252
195 195 194 195 193 190 186 189 186 180 170 182 188 181 159 202 224 236 220 222 225 235 227 219 218 216 243 239 268 251 233 153 72 94 40 340 268 266 248 303 237 259 283 286 298 195 249
193 194 192 191 189 188 189 192 190 186 173 194 225 195 176 190 218 226 227 207 212 217 218 209 233 206 211 208 212 221 241 176 203 138 209 263 262 272 293 312 295 287 288 280 272 268 256
191 189 188 187 189 193 196 196 195 190 180 201 224 195 178 224 208 212 224 216 199 216 206 226 241 214 234 243 228 249 318 302 247 157 233 76 278 282 299 293 279 272 269 264 265 263 266
189 185 185 187 188 190 194 195 195 192 191 201 211 215 177 211 208 206 218 223 213 217 205 221 227 242 221 239 254 250 246 276 42 188 169 147 262 312 268 283 293 283 258 264 254 260 256
190 187 185 187 189 192 193 193 193 192 194 197 205 214 226 215 227 215 211 224 221 227 217 197 219 234 234 274 184 198 235 249 242 239 248 256 256 263 254 286 252 251 259 303 321 295 288
184 182 185 191 191 193 196 197 196 194 194 195 204 205 223 238 231 227 206 229 232 233 248 165 208 203 210 165 356 234 237 259 252 247 238 223 234 130 219 230 274 288 266 235 289 236 93
185 187 188 191 193 196 197 197 198 197 195 202 205 219 236 250 246 224 228 210 203 226 207 229 163 172 201 184 185 215 223 211 211 157 108 75 70 164 181 248 243 271 101 57 354 256 81
191 189 190 195 197 198 198 198 199 200 200 204 218 218 217 224 241 329 255 278 221 210 205 215 168 191 196 206 204 221 230 237 207 179 175 140 121 184 219 247 271 281 75 76 233 136 119
194 197 198 198 198 199 198 199 200 199 200 204 214 218 218 240 266 299 317 1 317 245 208 183 176 218 191 211 204 207 239 236 241 236 167 170 173 185 183 239 251 258 242 210 97 134 192
196 195 196 194 196 198 197 198 198 198 199 203 210 228 230 246 271 283 262 321 353 24 352 243 200 173 188 196 223 197 227 232 232 239 225 191 202 175 182 202 232 229 119 140 162 255 291